CAPE
0 0 0 0 0 0 0 0 0 0 0 3 3 69 1 0 0 0 0 0 0 0 0 0 0 0 0 0 0 0 0 0 0 7 21 2 0 12 134 161 197 252 294 483
0 0 0 0 0 0 0 0 0 0 0 0 0 1 18 0 2 0 0 0 0 0 0 0 0 0 0 0 0 0 0 0 0 36 112 102 68 87 149 261 253 348 258 428
0 0 0 0 0 0 0 0 0 0 0 0 4 1 0 0 0 0 0 0 0 0 0 0 0 0 0 0 0 0 0 5 30 145 122 100 227 170 198 217 188 304 312 415
0 0 0 0 0 0 0 0 0 0 0 0 0 0 0 10 0 0 0 0 0 0 0 0 0 0 0 0 0 0 0 0 51 118 181 294 400 420 280 281 245 251 381 427
0 0 0 0 0 0 0 0 0 0 0 0 0 0 0 4 9 0 0 0 0 0 0 0 0 0 0 0 0 0 0 0 33 103 255 325 233 402 362 176 261 144 248 478
0 0 0 0 0 0 0 0 0 0 0 0 0 0 0 67 215 76 2 0 0 0 0 0 0 0 0 0 0 0 0 0 0 87 180 284 302 304 342 207 294 302 275 443
0 0 0 0 0 0 0 0 0 0 0 0 0 0 0 0 0 94 57 0 0 0 0 0 0 0 0 0 0 0 0 0 0 1 144 221 310 280 327 381 470 440 512 553
0 0 0 0 0 0 0 0 0 0 0 0 0 0 0 0 0 0 10 54 0 0 0 0 0 0 0 0 0 0 0 0 0 0 13 157 249 270 335 291 485 552 586 649
0 0 0 0 0 0 0 0 0 0 0 0 0 0 0 0 0 0 0 14 40 0 0 0 0 0 0 0 0 0 7 0 0 27 120 146 210 317 284 319 329 576 650 780
0 0 0 0 0 0 0 0 0 0 0 0 0 0 0 0 0 0 0 0 44 13 0 0 0 0 0 0 0 0 2 18 24 5 134 374 399 443 483 302 320 535 592 633
0 0 0 0 0 0 0 0 0 0 0 0 0 0 0 0 0 0 0 84 33 26 4 0 0 0 0 0 0 0 11 29 40 29 50 215 454 662 682 759 533 422 505 394
0 0 0 0 0 0 0 0 0 0 0 0 0 0 0 0 0 0 0 29 459 146 46 0 0 0 0 0 0 0 8 66 88 60 50 65 260 533 860 977 978 668 552 448
0 0 0 0 0 0 0 0 0 0 0 0 0 0 0 0 0 0 0 46 424 537 124 3 0 0 0 0 0 0 22 105 123 122 125 92 166 519 744 994 1180 1308 1090 804
0 0 0 0 0 0 0 0 0 0 0 0 0 0 0 0 0 0 0 199 402 350 462 85 0 0 0 0 0 1 51 168 176 200 260 234 161 447 610 922 1017 1082 1307 1386
0 0 0 0 0 0 0 0 0 0 0 0 0 0 0 0 0 29 12 253 439 318 321 328 158 113 2 0 0 15 77 161 338 369 377 365 272 303 469 822 1121 1139 1100 1279
0 0 0 0 0 0 0 0 0 0 0 0 0 0 0 0 67 66 20 142 319 182 111 58 126 161 138 44 18 86 102 266 386 527 564 509 360 305 436 694 779 1028 1172 1227
0 0 0 0 0 0 0 0 0 0 0 0 0 0 0 74 62 129 119 81 12 76 26 14 15 123 71 62 151 64 36 523 603 579 659 609 469 445 453 725 721 770 826 847
0 0 0 0 0 0 0 0 0 0 0 93 95 109 103 217 135 157 162 181 57 23 39 16 69 200 193 216 283 307 285 180 756 727 786 727 619 620 762 863 939 945 792 596
0 0 0 0 0 0 0 0 0 0 0 46 212 269 164 164 266 137 264 222 178 103 87 79 73 56 69 177 171 419 426 93 756 867 760 967 884 694 1022 1160 716 425 246 324
0 0 0 0 0 0 0 41 0 18 0 120 382 308 125 209 280 226 324 293 217 140 106 87 76 17 24 38 225 183 58 40 13 3 183 384 507 461 242 83 72 126 263 39
0 0 0 0 0 0 0 0 47 4 0 0 224 249 125 76 295 12 12 336 271 157 112 5 9 3 3 0 50 6 0 0 1 0 9 8 77 32 3 32 46 102 6 3
0 0 0 0 0 0 0 0 1 0 0 0 41 83 151 4 0 0 0 147 162 81 0 0 0 0 0 0 11 88 25 0 0 0 9 11 146 67 60 89 72 36 4 3
0 0 0 0 0 0 1 28 0 0 0 0 15 34 6 117 0 55 26 80 5 0 0 0 0 0 0 0 0 0 1 17 0 0 0 23 180 2 46 78 14 65 63 12
0 0 0 1 0 0 0 0 0 0 0 0 0 8 8 60 85 66 8 8 0 0 0 0 0 0 0 0 0 0 0 0 0 0 0 13 141 154 174 58 140 164 47 37
0 0 0 0 0 0 0 0 0 0 0 0 34 72 112 60 66 16 11 3 1 0 0 0 0 0 0 0 0 0 0 0 0 0 0 8 3 17 1 4 2 5 1 11
0 0 0 0 0 0 0 0 0 0 61 96 107 160 213 26 11 1 0 7 4 3 0 0 0 0 0 0 0 0 0 0 0 0 0 0 13 4 0 0 0 1 1 2
CIN
0 0 0 0 0 0 0 0 0 0 0 -82 -142 -176 -257 0 0 0 0 0 0 0 0 0 0 0 0 0 0 0 0 0 0 -257 -215 -123 0 -294 -202 -229 -226 -221 -215 -155
0 0 0 0 0 0 0 0 0 0 0 0 0 -40 -302 0 -363 0 0 0 0 0 0 0 0 0 0 0 0 0 0 0 0 -200 -156 -167 -231 -210 -205 -191 -212 -184 -228 -170
0 0 0 0 0 0 0 0 0 0 0 0 -54 -19 0 0 0 0 0 0 0 0 0 0 0 0 0 0 0 0 0 -163 -246 -177 -188 -224 -141 -178 -175 -210 -254 -219 -221 -174
0 0 0 0 0 0 0 0 0 0 0 0 0 0 0 -269 0 0 0 0 0 0 0 0 0 0 0 0 0 0 0 0 -245 -195 -148 -124 -94 -99 -173 -176 -208 -248 -221 -191
0 0 0 0 0 0 0 0 0 0 0 0 0 0 0 -89 -357 0 0 0 0 0 0 0 0 0 0 0 0 0 0 0 -265 -215 -139 -123 -142 -125 -149 -188 -172 -267 -266 -201
0 0 0 0 0 0 0 0 0 0 0 0 0 0 0 -211 -198 -311 -122 0 0 0 0 0 0 0 0 0 0 0 0 0 0 -247 -199 -168 -143 -150 -150 -201 -190 -207 -228 -185
0 0 0 0 0 0 0 0 0 0 0 0 0 0 0 0 0 -212 -286 0 0 0 0 0 0 0 0 0 0 0 0 0 0 -8 -244 -223 -185 -181 -171 -174 -172 -182 -168 -171
0 0 0 0 0 0 0 0 0 0 0 0 0 0 0 0 0 0 -56 -310 0 0 0 0 0 0 0 0 0 0 0 0 0 0 -113 -266 -230 -209 -209 -226 -183 -169 -158 -155
0 0 0 0 0 0 0 0 0 0 0 0 0 0 0 0 0 0 0 -380 -319 0 0 0 0 0 0 0 0 0 -327 0 0 -368 -299 -277 -247 -224 -245 -246 -234 -177 -176 -149
0 0 0 0 0 0 0 0 0 0 0 0 0 0 0 0 0 0 0 0 -324 -442 0 0 0 0 0 0 0 0 -109 -393 -359 -151 -302 -236 -225 -210 -205 -245 -223 -188 -182 -180
0 0 0 0 0 0 0 0 0 0 0 0 0 0 0 0 0 0 0 -358 -301 -368 -288 0 0 0 0 0 0 0 -389 -417 -351 -407 -373 -274 -220 -186 -181 -162 -203 -206 -204 -248
0 0 0 0 0 0 0 0 0 0 0 0 0 0 0 0 0 0 0 -163 -441 -413 -445 0 0 0 0 0 0 0 -417 -394 -403 -389 -416 -356 -280 -192 -131 -126 -145 -193 -212 -249
0 0 0 0 0 0 0 0 0 0 0 0 0 0 0 0 0 0 0 -520 -434 -427 -428 -621 0 0 0 0 0 0 -487 -410 -411 -418 -365 -346 -329 -206 -144 -115 -114 -123 -160 -202
0 0 0 0 0 0 0 0 0 0 0 0 0 0 0 0 0 0 0 -387 -382 -462 -500 -656 -97 0 0 0 0 -335 -449 -350 -361 -374 -327 -302 -323 -244 -166 -114 -140 -126 -120 -130
0 0 0 0 0 0 0 0 0 0 0 0 0 0 0 0 0 -267 -399 -299 -316 -389 -446 -618 -587 -645 -444 0 0 -570 -380 -333 -318 -289 -267 -292 -300 -271 -208 -146 -115 -124 -125 -99
0 0 0 0 0 0 0 0 0 0 0 0 0 0 0 -1 -114 -224 -312 -284 -288 -361 -433 -534 -570 -545 -592 -555 -575 -451 -418 -319 -241 -230 -279 -284 -270 -266 -239 -187 -168 -127 -119 -112
0 0 0 0 0 0 0 0 0 0 0 0 0 0 0 -56 -92 -162 -236 -271 -335 -376 -470 -345 -384 -506 -509 -531 -431 -421 -471 -242 -215 -219 -200 -180 -249 -244 -229 -192 -179 -169 -143 -143
0 0 0 0 0 0 0 0 0 0 0 -67 -78 -66 -44 -11 -43 -78 -165 -173 -246 -360 -383 -338 -385 -408 -427 -392 -337 -367 -347 -336 -165 -134 -118 -102 -122 -165 -153 -144 -157 -134 -130 -141
0 0 0 0 0 0 0 0 0 0 0 -26 -73 -59 -49 -53 -32 -113 -93 -112 -135 -180 -259 -264 -349 -439 -377 -344 -294 -139 -158 -381 -106 -60 -70 -47 -72 -88 -89 -77 -129 -177 -188 -142
0 0 0 0 0 0 0 -94 0 -108 0 -81 -67 -56 -60 -83 -17 -58 -30 -81 -103 -182 -246 -245 -270 -368 -358 -394 -241 -218 -321 -339 -222 -12 -152 -80 -71 -55 -107 -184 -173 -153 -140 -212
0 0 0 0 0 0 0 0 -94 -18 0 0 -64 -67 -101 -141 -28 -139 -5 -2 -44 -179 -257 -238 -208 -223 0 -147 -327 -221 0 0 0 0 0 -83 -100 -178 -49 -123 -90 -73 -187 -218
0 0 0 0 0 0 0 0 -9 0 0 -14 -142 -140 -110 -84 0 0 0 -63 -42 -227 -118 0 0 0 0 0 -269 -220 -339 0 0 0 -17 -64 -14 -32 -59 -9 -95 -102 -40 0
0 0 0 0 0 0 -15 -135 0 0 0 0 -130 -176 -18 -135 0 0 -20 -42 -229 0 0 0 0 0 0 0 0 0 0 -64 0 0 0 -39 -16 -212 -202 -59 -57 -116 -131 -178
0 0 0 -18 0 0 0 0 0 0 0 0 -16 -201 -170 -53 -38 -20 -10 -2 0 0 0 0 0 0 0 0 0 0 0 0 0 0 0 -66 -39 -56 -25 -23 -26 -55 -233 -229
0 0 0 0 0 0 0 0 0 0 0 0 -157 -118 -71 -33 -24 -51 -41 0 0 0 0 0 0 0 0 0 0 0 0 0 0 0 0 -52 -100 -288 0 0 0 -112 0 -144
0 0 0 0 0 0 0 0 0 0 -115 -79 -74 -62 -19 -24 -4 -16 -1 -63 0 0 0 0 0 0 0 0 0 0 0 0 0 0 0 -148 -295 -214 0 0 0 0 0 0
Wind_Speed
4 6 2 2 2 2 2 3 4 6 5 7 15 11 12 14 12 14 15 14 14 14 12 12 13 13 12 10 9 10 9 7 7 3 4 3 3 3 2 3 4 5 4 4
7 1 3 3 2 2 3 2 4 5 2 8 7 14 9 18 22 20 18 16 15 10 9 12 13 13 14 14 13 11 12 9 7 6 4 3 3 3 3 4 4 5 5 5
5 2 1 4 5 5 3 1 3 4 8 3 1 5 8 13 12 13 14 15 14 15 14 13 14 15 14 14 14 13 13 11 10 8 3 3 3 3 2 2 2 4 6 5
1 3 4 5 2 4 2 5 3 5 5 3 4 5 5 7 18 15 17 17 16 15 14 14 16 15 16 16 15 14 13 11 10 10 7 5 5 4 3 4 3 4 5 6
3 5 5 5 4 1 7 4 5 3 4 2 2 2 7 6 11 19 19 21 21 19 18 19 20 19 19 16 15 14 13 12 11 12 10 7 4 5 3 3 5 5 4 5
3 4 5 3 4 2 6 1 6 4 3 1 6 6 6 7 14 17 18 22 24 22 21 19 20 19 18 15 14 14 13 12 11 12 11 12 9 6 4 4 4 4 3 3
8 4 5 4 7 7 12 7 4 4 1 6 2 0 8 6 5 9 16 22 24 21 19 19 20 19 18 18 16 14 14 14 13 13 12 12 11 9 9 7 6 5 4 3
4 6 7 8 1 4 5 4 6 4 3 5 5 7 7 7 8 9 10 16 18 20 20 22 23 22 21 21 19 18 16 15 13 14 13 11 11 7 7 7 5 7 6 6
3 5 5 2 3 1 6 3 2 2 2 3 5 9 8 7 10 9 9 7 14 21 22 25 24 24 22 21 21 21 18 17 14 15 12 12 10 9 8 8 7 6 7 5
3 2 2 6 5 4 3 3 3 4 2 5 6 6 6 11 14 20 22 13 12 17 21 21 22 23 21 20 20 21 20 19 17 15 13 12 12 11 9 7 8 7 7 6
3 3 7 2 2 4 6 4 4 4 4 4 3 8 6 5 9 20 21 18 16 13 19 20 20 20 21 19 20 19 18 18 16 15 14 13 12 12 10 9 9 9 8 6
2 5 2 6 5 4 4 4 5 5 7 3 3 9 10 7 15 17 23 22 17 9 14 16 16 15 15 18 17 19 18 17 17 16 14 14 12 12 11 10 9 9 9 7
3 1 3 10 7 6 5 2 2 2 3 4 3 7 15 19 21 20 21 24 14 12 7 8 13 17 19 19 18 18 17 18 17 14 15 14 12 13 14 12 11 9 8 8
6 3 8 8 8 3 3 3 5 3 3 5 8 17 10 18 14 24 22 19 13 12 3 4 11 14 17 19 19 18 17 16 15 14 14 15 14 14 14 12 10 11 9 8
4 4 5 7 8 3 6 8 8 7 8 8 12 23 14 8 15 15 15 16 11 13 10 7 4 5 4 4 11 12 11 13 14 13 13 15 13 12 12 11 10 10 10 10
2 4 4 4 7 8 5 8 14 14 15 16 12 13 2 11 7 9 13 14 11 10 10 6 8 5 8 6 5 4 9 11 11 12 16 14 11 11 12 12 12 11 11 11
3 4 3 6 4 6 5 12 11 6 7 6 7 8 6 6 5 7 10 11 10 9 10 9 4 7 8 8 8 6 5 5 11 14 13 11 10 12 12 12 11 13 12 9
5 4 3 4 2 4 7 5 7 8 10 7 6 5 7 7 6 6 4 7 6 7 7 7 6 2 4 3 2 5 6 4 10 10 10 8 9 11 9 10 11 8 7 8
3 4 1 1 3 7 6 4 4 2 10 8 8 7 7 7 5 5 3 5 7 5 3 4 5 6 3 4 1 6 6 8 5 6 8 10 12 9 9 9 7 5 6 5
4 3 3 2 3 6 6 3 3 0 9 2 4 7 4 6 6 4 4 3 6 4 2 2 3 4 6 5 5 7 9 14 9 8 7 4 4 5 4 6 5 4 6 7
5 4 3 3 5 9 5 6 1 4 8 13 11 9 6 2 3 7 17 8 5 1 5 5 5 3 4 4 8 14 13 12 8 8 6 4 5 6 7 3 4 5 7 9
4 2 4 1 3 9 3 4 1 5 8 9 13 13 12 2 5 8 14 17 6 5 7 3 5 5 6 6 6 6 11 8 8 6 2 9 8 5 5 7 6 7 6 9
3 8 4 9 8 5 3 8 6 4 10 15 10 16 16 7 8 10 7 21 4 6 7 4 4 6 7 8 8 5 4 7 10 5 7 6 7 3 3 6 6 6 8 7
5 4 4 2 5 9 12 8 6 5 10 14 10 13 16 8 10 9 20 8 8 8 7 7 8 10 10 8 9 8 6 6 4 4 7 5 1 3 4 5 4 5 4 5
6 4 4 6 14 11 10 6 5 9 8 13 11 13 12 5 5 9 15 15 9 9 5 11 10 10 8 10 11 10 8 4 8 8 2 7 5 5 5 5 2 3 4 2
5 7 5 6 5 4 11 7 9 8 10 10 9 6 7 9 5 7 12 6 10 10 9 10 9 10 11 14 15 14 13 11 9 9 6 6 7 5 3 4 4 8 8 7
Wind_Direction
14 71 120 153 173 259 220 207 207 254 215 178 221 231 184 191 199 195 194 198 205 208 199 192 190 189 180 182 181 185 175 174 159 155 166 165 193 183 201 220 218 214 208 211
29 96 181 194 165 71 358 1 316 296 191 196 249 232 181 191 204 204 196 198 202 201 184 186 186 182 180 180 187 189 195 169 178 180 175 164 159 189 176 186 205 208 205 203
133 218 336 87 34 44 352 198 266 276 317 314 169 289 183 211 208 210 217 217 209 201 194 188 183 186 184 183 186 192 192 180 184 181 140 95 89 69 110 168 207 212 202 204
118 303 49 49 14 126 348 198 242 308 43 279 63 284 243 196 210 209 215 212 214 209 201 192 188 187 188 193 187 190 190 185 189 176 178 162 164 161 198 191 198 213 205 214
281 4 4 19 326 217 242 299 258 241 204 113 292 114 272 128 213 224 217 214 212 209 201 194 191 191 196 187 188 188 187 191 190 187 185 177 172 188 179 168 188 212 216 218
17 320 63 288 332 329 276 336 27 58 103 256 228 168 269 180 215 223 226 222 216 206 203 200 195 189 194 191 191 189 181 193 189 190 191 185 186 189 177 173 191 201 206 212
339 359 327 358 13 350 27 43 355 347 290 224 215 167 230 243 245 234 220 221 220 210 202 197 194 191 192 190 190 190 188 192 189 191 195 192 194 186 193 192 197 185 194 209
62 337 14 340 92 251 303 125 141 260 232 268 278 248 252 227 249 242 240 232 218 210 203 198 196 192 191 191 189 190 191 197 187 189 196 197 194 194 194 190 191 200 200 205
78 290 321 306 298 66 314 37 276 161 339 64 246 291 304 290 315 326 290 232 216 209 205 201 196 192 191 193 192 191 192 198 191 194 189 194 194 188 192 191 188 201 204 200
189 297 269 292 16 15 117 245 8 9 276 285 295 281 245 328 332 334 325 310 248 221 209 202 198 194 191 191 191 192 195 193 195 191 192 191 194 194 192 183 195 197 206 210
104 118 289 26 24 258 350 20 22 123 132 194 304 269 231 340 326 324 316 310 294 229 211 200 199 195 195 188 189 191 193 194 194 191 193 195 197 192 189 191 198 206 210 193
26 135 243 250 288 293 187 106 103 105 296 254 204 261 284 319 337 339 325 315 312 263 208 202 192 182 184 190 193 192 193 194 194 192 190 197 194 196 196 197 199 200 205 197
169 11 22 344 359 357 52 344 98 138 79 230 236 261 341 334 338 331 323 320 312 299 200 176 177 178 182 190 190 194 198 197 194 187 188 193 192 193 201 200 197 198 203 204
91 130 166 188 221 174 261 242 278 159 155 248 238 286 309 308 323 322 327 321 323 310 92 201 186 192 190 189 189 192 195 197 195 192 191 195 196 196 202 203 190 194 199 204
99 210 188 244 256 256 235 251 243 231 219 215 281 283 289 299 304 310 318 322 328 323 325 89 88 92 128 204 199 189 198 193 185 186 197 203 197 196 196 194 193 195 196 209
29 247 175 266 255 225 245 268 263 247 253 258 253 267 197 315 301 319 343 325 334 324 335 2 104 101 92 121 139 205 179 184 185 194 199 194 194 190 192 193 191 190 201 208
164 156 109 258 259 308 275 229 231 238 232 213 225 240 309 303 304 341 351 325 335 336 347 324 289 144 156 164 149 160 184 182 192 196 201 204 189 192 196 193 192 202 203 190
138 131 146 255 353 230 241 273 251 248 256 231 260 268 287 270 250 275 342 307 305 327 342 327 315 348 88 109 153 127 151 207 191 201 191 196 189 195 185 186 194 193 183 194
95 127 76 252 231 291 289 294 25 356 288 244 234 232 277 302 275 270 304 300 259 255 311 295 316 343 38 78 105 193 187 158 161 185 182 197 198 200 169 170 165 171 170 155
76 75 131 112 249 256 230 157 353 105 280 249 249 274 303 324 297 309 292 293 277 319 305 311 342 13 356 9 89 108 89 74 76 63 45 63 138 151 141 138 152 167 131 128
329 343 206 229 249 283 266 301 252 174 275 329 320 304 267 231 347 327 323 267 243 232 32 25 51 47 324 0 90 93 97 99 95 63 45 14 70 91 99 115 156 134 152 146
200 196 238 169 217 277 190 344 359 259 298 306 310 302 298 314 279 291 317 272 227 117 76 20 58 35 14 9 72 125 122 128 109 135 10 102 253 177 140 216 149 170 170 153
262 193 207 191 221 261 255 238 272 271 276 297 288 296 301 288 310 250 273 275 185 86 77 55 71 58 40 35 46 37 325 153 169 188 140 146 233 138 186 136 183 169 167 183
257 176 234 330 266 288 297 287 266 245 266 279 275 277 285 242 264 1 354 270 102 65 52 56 57 54 48 37 56 44 33 52 26 89 134 97 169 195 126 127 208 194 151 165
209 153 228 253 280 292 276 245 285 307 278 281 283 282 273 79 22 73 28 347 27 72 75 65 46 33 26 46 39 30 14 41 88 78 80 85 63 63 61 71 17 74 55 203
195 207 177 240 233 199 278 291 313 307 304 323 316 318 27 101 76 60 76 1 14 42 48 58 59 50 20 39 33 12 7 21 55 58 45 49 76 54 56 63 59 67 92 48